Date,TemperatureHighF,TemperatureAvgF,TemperatureLowF,DewpointHighF,DewpointAvgF,DewpointLowF,HumidityHigh,HumidityAvg,HumidityLow,PressureMaxIn,PressureMinIn,WindSpeedMaxMPH,WindSpeedAvgMPH,GustSpeedMaxMPH,PrecipitationSumIn
2013-4-1,51,42,34,34,19,1,81,44,14,30.58,30.28,16,6,18,0.00
2013-4-2,53,40,29,22,18,12,65,43,20,30.63,30.53,9,5,13,0.00
2013-4-3,51,42,33,25,21,14,68,44,27,30.66,30.53,12,6,15,0.00
2013-4-4,68,51,37,29,21,7,62,36,10,30.53,30.35,7,2,11,0.00
2013-4-5,74,57,40,40,35,29,73,46,25,30.47,30.16,9,4,16,0.00
2013-4-6,78,65,57,48,42,34,59,46,20,30.17,29.96,16,8,24,0.00
2013-4-7,75,62,50,58,47,41,99,61,31,30.17,29.96,11,3,18,0.54
2013-4-8,76,65,54,63,60,53,99,84,63,30.04,29.98,9,4,23,0.40
2013-4-9,74,68,58,66,61,56,99,79,70,30.08,29.95,12,6,27,0.20
2013-4-10,56,43,38,55,43,38,99,99,95,30.23,30.02,13,5,30,0.81
2013-4-11,41,37,34,38,30,27,99,78,58,30.11,30.01,12,7,18,0.01
2013-4-12,54,41,32,33,30,26,87,65,39,30.32,30.06,10,6,15,0.00
2013-4-13,66,51,33,45,37,30,94,63,39,30.36,30.03,12,4,17,0.00
2013-4-14,76,64,54,57,47,30,80,56,33,30.02,29.80,16,7,28,0.04
2013-4-15,57,50,44,44,36,30,93,61,37,30.29,30.02,10,4,16,0.08
2013-4-16,47,44,42,38,34,29,80,67,52,30.44,30.30,14,10,21,0.00
2013-4-17,52,48,45,51,47,38,99,95,74,30.37,29.94,13,6,17,0.44
2013-4-18,48,40,37,47,37,28,99,88,68,30.23,29.88,16,8,18,0.21
2013-4-19,54,42,32,28,23,13,79,51,21,30.40,30.19,14,7,23,0.00
2013-4-20,57,45,30,34,28,23,80,52,32,30.55,30.40,13,6,18,0.00
2013-4-21,70,59,49,43,38,31,66,47,29,30.52,30.40,13,6,18,0.00
2013-4-22,68,58,49,51,43,39,93,60,39,30.44,30.21,12,4,15,0.01
2013-4-23,48,37,34,46,35,32,99,96,77,30.48,30.30,15,7,24,0.77
2013-4-24,57,43,30,34,28,21,99,62,28,30.56,30.44,15,4,18,0.01
2013-4-25,72,56,36,40,34,26,88,49,19,30.60,30.44,8,4,14,0.00
2013-4-26,60,52,48,50,47,38,99,83,48,30.52,30.44,10,5,16,0.44
2013-4-27,56,51,47,51,49,47,99,94,81,30.49,30.30,7,4,10,0.60
2013-4-28,79,61,43,56,50,43,99,73,35,30.30,30.08,9,3,13,0.00
2013-4-29,88,73,59,64,58,52,84,63,39,30.12,29.93,11,6,17,0.00
2013-4-30,87,76,68,58,52,46,70,46,27,30.13,29.96,12,6,20,0.00